{"data":{"norad_id":55828,"intl_designator":"2023-029AJ","name":"ONEWEB-0669","alt_names":[],"object_type":"PAYLOAD","status":"ACTIVE","operator":null,"country":"UK","launch_date":"2023-03-09","launch_site_code":"AFETR","launch_vehicle":null,"mission":null,"orbit_class":"UNKNOWN","rcs_meters":null,"size_class":null,"mass_kg":null,"dimensions":null,"purposes":["comms"],"wikipedia_slug":null,"has_3d_model":false,"image_url":null,"decayed_at":null,"tle_current":{"epoch":"2026-05-25T01:38:19.327200Z","epoch_age_seconds":68810,"freshness":"FRESH","line1":"1 55828U 23029AJ  26145.06827925  .00000002  00000+0 -26028-4 0  9995","line2":"2 55828  87.9171 279.0516 0002445  97.8408 262.3003 13.20770438158098","mean_motion":13.20770438,"eccentricity":0.0002445,"inclination_deg":87.9171,"raan_deg":279.0516,"arg_perigee_deg":97.8408,"mean_anomaly_deg":262.3003,"bstar":-2.6028e-5,"rev_number":15809,"period_min":109.0272736707,"perigee_km":1179.9302199837,"apogee_km":1183.6270187215,"semimajor_km":7559.9156193526,"source":"CELESTRAK","updated_at":"2026-05-25T13:38:22.697514Z"}}}